Hourly Data Report for October 20, 2015

All times are specified in Local Standard Time (LST). Add 1 hour to adjust for Daylight Saving Time where and when it is observed.

HALL BEACH A
NUNAVUT

68°46'33.000" N
81°14'33.000" W
9.10 m
2402354
71293
YUX

Download Data

Hourly Data (October 2015)
Hourly Data Report for October 20, 2015
Temp Definition
°C
Dew Point Temp Definition
°C
Rel Hum Definition
%
Wind Dir Definition
10's deg

Wind Spd Definition
km/h
Visibility Definition
km
Stn Press Definition
kPa
Hmdx Definition


Wind Chill Definition


Weather Definition


TIME
00:00 Legend Double Dagger -3.9 -5.9 86 3 18 8.1 101.06   -10 Snow
01:00 Legend Double Dagger -3.6 -8.6 68 9 15 16.1 101.09   -9 Snow
02:00 Legend Double Dagger -3.5 -9.5 63 11 21 16.1 101.13   -10 Snow
03:00 Legend Double Dagger -3.3 -9.2 64 11 18 16.1 101.17   -9 LegendNANA
04:00 Legend Double Dagger -3.2 -9.1 64 10 15 16.1 101.22   -8 LegendNANA
05:00 Legend Double Dagger -4.9 -6.4 89 32 9 16.1 101.27   -9 LegendNANA
06:00 Legend Double Dagger -5.3 -6.3 93 30 13 16.1 101.31   -10 Snow
07:00 Legend Double Dagger -5.5 -6.3 94 30 21 16.1 101.33   -12 LegendNANA
08:00 Legend Double Dagger -8.3 -8.7 97 31 17 16.1 101.37   -15 LegendNANA
09:00 Legend Double Dagger -8.3 -8.9 96 34 21 16.1 101.39   -16 LegendNANA
10:00 Legend Double Dagger -7.9 -8.7 94 34 18 16.1 101.40   -15 LegendNANA
11:00 Legend Double Dagger -7.7 -8.6 94 31 24 16.1 101.41   -16 LegendNANA
12:00 Legend Double Dagger -8.8 -10.0 91 31 22 16.1 101.44   -17 LegendNANA
13:00 Legend Double Dagger -8.2 -9.7 89 31 24 16.1 101.47   -16 LegendNANA
14:00 Legend Double Dagger -9.1 -10.3 91 31 22 16.1 101.49   -17 LegendNANA
15:00 Legend Double Dagger -7.1 -8.5 90 32 24 16.1 101.52   -15 LegendNANA
16:00 Legend Double Dagger -6.5 -7.9 90 33 18 16.1 101.55   -13 LegendNANA
17:00 Legend Double Dagger -6.3 -7.8 89 31 17 16.1 101.57   -13 LegendNANA
18:00 Legend Double Dagger -6.8 -8.2 90 29 9 16.1 101.53   -11 Snow
19:00 Legend Double Dagger -7.2 -8.6 90 29 9 16.1 101.52   -12 Snow
20:00 Legend Double Dagger -7.3 -8.8 89 33 11 16.1 101.45   -12 LegendNANA
21:00 Legend Double Dagger -7.4 -8.8 90 27 8 16.1 101.39   -11 LegendNANA
22:00 Legend Double Dagger -7.0 -8.4 90 22 13 16.1 101.34   -13 LegendNANA
23:00 Legend Double Dagger -6.9 -8.9 86 21 15 16.1 101.24   -13 LegendNANA

Notes on Data Quality.

Legend

  • E = Estimated
  • M = Missing
  • NA = Not Available
  • ‡ = Partner data that is not subject to review by the National Climate Archives
Date modified: